Погода в Таразе

Поиск расширенной информации на нашем сайте:

Полезная информация:

Новости сайта



02.01.2020
Опубликован Долгосрочный прогноз погоды по городам России и ближнего зарубежья на январь 2020 года.
Карты: Прогноз на январь и февраль 2020 года, Сравнение прогнозируемой аномалии приземной температуры воздуха на январь 2020 года по разным моделям.




Погода в Таразе - сегодня

Время (UTC), дата Ветер
(°,м/с) 
Видим.   Явления Облачность Т
(°С)
Тd
(°С)
f(%) Тe
(°С)
Pmin
(гПа)
dP
(гПа)
Po
(мм)
O2
(г/м3)
Тmin Tmax R s Состояние
почвы
09 22.10.21 тихо ()   20000 м    10/10 600 м кучево-дожд. 
[Cb cap]
+4.6 +3.6 93 +5  1033.5  716  283           
12 22.10.21 080 (В) 20000 м    10/10 600 м кучево-дожд. 
[Cb cap]
+5.3 +0.4 71 +6  1034.6  1.2  717  283           
15 22.10.21 тихо ()   10 км    8/8 1000 м 
[Sc diur, vesp]
+4.3 +0.1 74 +4  1036.2  1.2  718  285    +5.6       
18 22.10.21 тихо ()   10 км    6/0 средняя 
[Ac lent]
+2.6 -1.3 75 +3  1037.4  0.6  718  287    +5.6  0.0     
21 22.10.21 тихо ()   10 км    8/6 1000 м средняя 
[Sc diur, vesp|Ac lent]
+3.1 -0.7 76 +3  1036.8  -0.4  718  286           
00 23.10.21 тихо ()   10 км    10/10 1000 м 
[Sc diur, vesp]
+2.4 -0.3 82 +2  1036.7  -0.2  718  287           
03 23.10.21 230 (ЮЗ) 50000 м    4/0 средняя 
[Ac lent]
+2.4 +0.3 86 +3  1036.6  -0.1  718  287           
06 23.10.21 350 (С) 20000 м    ясно 
+7.1 +1.5 68 +8  1034.4  -0.7  717  281  +1.7         
09 23.10.21 310 (СЗ) 20000 м    ясно 
+13.2 -1.2 37 +14  1031.5  -1.9  716  275           
12 23.10.21 340 (С) 20000 м    3/0 верхняя 
[Ci fib]
+10 +0.6 52 +10  1031.5  -0.1  716  278           
15 23.10.21 260 (З) 10 км    ясно 
+4.7 -0.4 69 +6  1033  716  283    +11.3       
18 23.10.21 160 (Ю) 10 км    ясно 
+3.1 -1 74 +4  1032.1  -1.3  715  285    +11.3       
21 23.10.21 200 (Ю) 10 км    ясно 
+1.9 -2.1 75 +3  1030.7  -1.6  714  286           
00 24.10.21 180 (Ю) 10 км    ясно 
+0.7 -1.9 83 +1  1030.2  -0.9  713  287           
03 24.10.21 150 (ЮВ) 50000 м    ясно 
+2 +0.7 91 +1  1028.7  -1  712  285           
06 24.10.21 320 (СЗ) 20000 м    ясно 
+8.1 +2.9 70 +9  1024.8  -1.9  711  278  +0         
09 24.10.21 260 (З) 20000 м    ясно 
+11.7 +0.9 47 +11  1020.9  -2.7  709  274           
12 24.10.21 280 (З) 20000 м    ясно 
+11.7 -0.9 42 +11  1019.7  -1.1  708  273           
15 24.10.21 110 (В) 10 км    ясно 
+6.3 -0.2 63 +7  1020.8  -0.4  708  279    +13.4       
18 24.10.21 140 (ЮВ) 10 км    ясно 
+5.1 -0.2 69 +5  1019.6  -1.4  707  279    +13.4       
21 24.10.21 150 (ЮВ) 10 км    ясно 
+4.6 -1.4 65 +4  1018.5  -1.2  706  280           
00 25.10.21 150 (ЮВ) 10 км    ясно 
+3.6 -0.8 73 +3  1018.1  -0.6  705  280           
03 25.10.21 170 (Ю) 50000 м    ясно 
+5 +0.9 75 +6  1018.1  0.4  705  279           
06 25.10.21 350 (С) 20000 м    ясно 
+16.5 +1.3 36 +18  1014.5  -0.4  705  268  +2.8         
09 25.10.21 340 (С) 20000 м    ясно 
+18.9 +0.6 29 +20  1013  -0.8  705  265           
Время (UTC), дата Ветер
(°,м/с) 
Видим.   Явления Облачность Т
(°С)
Тd
(°С)
f(%) Тe
(°С)
Pmin
(гПа)
dP
(гПа)
Po
(мм)
O2
(г/м3)
Тmin Tmax R s Состояние
почвы

Для получения пояснительной информации подведите курсор к названию столбца.

ПОГОДА в Таразе - архив

Всё, что Вы хотите узнать о погоде в Таразе - удобно и подробно!

Выберите нужную дату (начиная с 1 января 2019* года) и нажмите кнопку "Найти".
Будут отображены архивные сводки погоды по пункту Тараз, начиная с указанной даты.


Отображать данные в формате CSV (для использования в таблицах Excel)


Внимание! Наш архив погоды предназначен исключительно для личного некоммерческого использования в познавательных целях. Если Вам необходимы официальные справки о состоянии погоды (для производственных, юридических, коммерческих и т.п. целей), обращайтесь в органы Росгидромета.

*Примечание: данная дата относится к архиву по метеостанциям СССР (Россия, СНГ, Балтия).
Архив по метеостанциям Зарубежной Европы и Азии (кроме Китая) хранится 10 дней, по другим регионам земного шара (Китай, Африка, Америка, Австралия, Океания) - 1 день.

Тараз - район местоположения метеостанции


Название, широта, долгота, высота метеостанции:
Тараз (город) 42.9°ш. 71.4°д. 651 м над ур. моря [Казахстан]

Дополнительная информация

В oтличие oт бoльшинства пoгoдных сайтoв мы публикуем пoдрoбную метеoинфoрмацию в детальнoм прoфессиoнальнoм фoрмате.

Характеристики температуры и влажнoсти вoздуха измеряются на высoте 2 м в тени вдали oт зданий и деревьев.
Скoрoсть ветра измеряется на высoте 10 м (на урoвне рoста челoвека скoрoсть ветра ниже в 1.5-2 раза). Если метеoстанция нахoдится в гoрoде или в лесу, тo скoрoсть ветра занижена на 2-4 м/с пo сравнению с oткрытым местoм. Скoрoсть ветра над акватoриями крупных рек и oзёр, а также на вершинах хoлмoв на 2-5 м/с выше, чем в oбычных услoвиях.
Атмoсфернoе давление в разных тoчках местнoсти мoжет значительнo oтличаться oт давления на метеoстанции, в зависимoсти oт услoвий рельефа (при пoдъёме на 10 м давление пoнижается примернo на 1 мм рт.ст.).